TimeCDT,TemperatureF,Dew PointF,Humidity,Sea Level PressureIn,VisibilityMPH,Wind Direction,Wind SpeedMPH,Gust SpeedMPH,PrecipitationIn,Events,Conditions,WindDirDegrees,DateUTC
12:53 AM,73.9,71.1,91,30.14,9.0,SE,4.6,-,N/A,,Partly Cloudy,130,2013-07-16 05:53:00
1:26 AM,73.4,69.8,88,30.19,7.0,SSE,8.1,21.9,0.01,Rain,Light Rain,160,2013-07-16 06:26:00
1:53 AM,73.9,71.1,91,30.16,6.0,SW,4.6,-,0.05,Rain,Light Rain,220,2013-07-16 06:53:00
2:02 AM,73.4,71.6,94,30.18,1.8,Calm,Calm,-,0.03,Rain,Heavy Rain,0,2013-07-16 07:02:00
2:20 AM,73.4,69.8,88,30.18,3.0,NW,4.6,-,0.19,Rain,Rain,320,2013-07-16 07:20:00
2:53 AM,73.9,70.0,87,30.16,10.0,NNE,3.5,-,0.19,,Overcast,30,2013-07-16 07:53:00
3:53 AM,73.0,71.1,93,30.15,10.0,NNE,3.5,-,N/A,,Clear,20,2013-07-16 08:53:00
4:51 AM,73.4,71.6,94,30.17,7.0,Calm,Calm,-,N/A,,Partly Cloudy,0,2013-07-16 09:51:00
4:53 AM,73.0,71.1,93,30.16,7.0,Calm,Calm,-,N/A,,Partly Cloudy,0,2013-07-16 09:53:00
5:53 AM,73.0,71.1,93,30.17,7.0,Calm,Calm,-,N/A,,Clear,0,2013-07-16 10:53:00
6:53 AM,73.0,71.1,93,30.18,6.0,Calm,Calm,-,N/A,,Clear,0,2013-07-16 11:53:00
7:53 AM,75.0,72.0,90,30.19,8.0,East,4.6,-,N/A,,Clear,100,2013-07-16 12:53:00
8:48 AM,78.8,73.4,83,30.22,10.0,ENE,5.8,-,N/A,,Partly Cloudy,70,2013-07-16 13:48:00
8:53 AM,78.1,72.0,81,30.21,10.0,East,3.5,-,N/A,,Partly Cloudy,90,2013-07-16 13:53:00
9:53 AM,81.0,73.0,77,30.22,10.0,ENE,6.9,-,N/A,,Clear,70,2013-07-16 14:53:00
10:53 AM,84.0,73.0,69,30.21,10.0,East,4.6,-,N/A,,Partly Cloudy,80,2013-07-16 15:53:00
11:53 AM,84.9,73.0,67,30.20,10.0,ENE,3.5,-,0.00,Rain-Thunderstorm,Light Thunderstorms and Rain,70,2013-07-16 16:53:00
12:18 PM,78.8,73.4,83,30.22,8.0,SSW,9.2,-,0.00,Rain-Thunderstorm,Light Thunderstorms and Rain,200,2013-07-16 17:18:00
12:22 PM,78.8,71.6,78,30.22,9.0,SSW,5.8,16.1,0.00,Rain,Light Rain,200,2013-07-16 17:22:00
12:53 PM,82.9,73.0,72,30.19,10.0,Calm,Calm,-,0.00,,Clear,0,2013-07-16 17:53:00
1:53 PM,87.1,72.0,61,30.18,10.0,Calm,Calm,-,N/A,,Clear,0,2013-07-16 18:53:00
2:53 PM,89.1,72.0,57,30.14,10.0,East,6.9,-,N/A,,Clear,80,2013-07-16 19:53:00
3:53 PM,91.9,71.1,50,30.13,10.0,NE,10.4,-,N/A,,Clear,50,2013-07-16 20:53:00
4:08 PM,93.2,69.8,46,30.14,10.0,East,10.4,-,N/A,Thunderstorm,Thunderstorm,80,2013-07-16 21:08:00
4:53 PM,84.9,72.0,65,30.13,10.0,South,8.1,18.4,N/A,Thunderstorm,Thunderstorm,190,2013-07-16 21:53:00
5:53 PM,84.9,70.0,61,30.15,10.0,NNE,11.5,-,N/A,Thunderstorm,Thunderstorm,30,2013-07-16 22:53:00
6:53 PM,82.0,69.1,65,30.16,10.0,North,6.9,-,N/A,Thunderstorm,Thunderstorm,10,2013-07-16 23:53:00
7:02 PM,80.6,69.8,70,30.17,10.0,NNE,4.6,-,N/A,,Clear,30,2013-07-17 00:02:00
7:53 PM,80.1,70.0,71,30.15,10.0,NE,3.5,-,N/A,,Clear,50,2013-07-17 00:53:00
8:53 PM,79.0,71.1,77,30.17,10.0,NE,4.6,-,N/A,,Clear,50,2013-07-17 01:53:00
9:53 PM,78.1,72.0,81,30.18,10.0,Calm,Calm,-,N/A,,Clear,0,2013-07-17 02:53:00
10:53 PM,78.1,73.0,84,30.21,10.0,Calm,Calm,-,N/A,,Clear,0,2013-07-17 03:53:00
11:53 PM,78.1,73.0,84,30.23,10.0,Calm,Calm,-,N/A,,Clear,0,2013-07-17 04:53:00